Theta_e
317 317 318 318 318 318 319 319 319 320 320 320 320 321 322 325 327 330 333 332 334 333 340 348 353 355 355 353 354 348 357 360 358 353 342 338 337 341 347 349 350 350 349 349 350
316 316 317 317 318 318 319 319 319 320 320 320 321 321 323 330 335 338 335 340 345 340 347 352 353 356 355 354 348 352 356 357 353 350 341 341 339 340 345 348 349 350 349 349 349
315 316 316 316 317 318 318 319 319 320 320 321 321 322 324 332 339 339 337 343 345 343 351 352 352 352 353 349 350 349 354 351 350 348 344 342 342 342 347 348 349 350 349 348 350
315 315 315 316 317 318 318 318 319 319 320 321 321 322 327 331 344 340 344 344 344 352 351 348 349 344 349 350 352 354 351 349 353 348 348 346 343 342 345 348 348 349 349 348 348
315 315 315 316 316 317 318 318 319 319 320 320 321 323 326 333 341 345 346 344 352 352 352 350 348 351 354 346 346 344 344 348 351 349 348 348 346 343 342 348 348 349 349 348 348
313 314 315 316 316 317 318 318 319 319 319 320 321 323 324 333 346 347 348 350 353 353 354 353 354 353 350 353 353 353 348 347 350 348 346 345 345 344 346 349 348 349 348 348 346
313 313 314 314 316 317 318 318 319 319 319 320 321 322 323 335 339 340 345 345 346 351 350 350 351 354 352 354 352 353 355 353 349 347 345 346 348 343 344 349 348 348 348 347 346
312 313 313 314 315 316 318 318 319 319 319 320 320 321 329 334 336 333 338 342 341 347 347 347 347 349 350 345 347 348 349 351 348 346 349 346 348 343 342 347 348 347 347 347 347
311 312 313 314 314 315 317 319 319 320 319 320 320 327 332 334 333 334 337 341 341 341 343 344 345 346 344 349 349 348 350 349 349 346 348 344 344 345 342 342 344 346 347 347 347
311 311 313 313 314 315 317 319 319 319 319 319 319 323 331 335 334 332 335 339 339 338 339 342 343 339 347 348 351 351 348 347 349 346 347 347 344 346 344 342 342 344 345 346 347
312 312 312 313 314 315 318 320 325 325 321 321 326 328 332 333 333 333 335 339 340 340 338 339 339 342 344 348 348 348 350 349 346 345 340 339 339 347 347 345 344 343 343 344 345
314 313 312 313 314 315 317 319 325 324 323 324 325 326 327 326 328 333 335 339 339 338 337 337 340 341 343 345 349 348 349 341 339 342 339 339 339 338 346 348 348 346 344 343 344
315 315 313 313 315 316 322 324 324 324 322 324 324 326 328 329 328 331 336 338 337 337 337 339 340 342 344 348 348 343 343 342 341 339 336 336 336 339 344 346 349 349 348 346 344
316 316 315 313 314 322 323 323 324 324 318 321 323 325 327 329 329 333 335 336 336 337 336 335 337 339 338 341 346 344 341 341 339 336 338 335 337 336 342 342 341 344 350 349 347
316 317 316 314 314 321 321 324 324 324 327 329 322 326 332 328 330 331 333 335 335 336 336 336 336 335 337 337 337 339 338 339 338 336 334 335 334 332 339 343 342 340 343 350 350
315 316 317 316 314 316 318 323 324 320 327 328 325 325 326 328 329 330 331 331 336 333 333 333 335 335 335 335 335 337 335 332 331 329 334 333 333 337 337 338 341 341 340 347 351
315 316 318 317 315 320 320 324 320 323 326 326 324 321 322 323 325 326 327 328 331 332 331 331 333 332 334 334 332 336 330 332 334 333 334 331 334 334 337 337 337 337 340 342 351
315 316 317 319 317 319 321 320 326 327 329 328 324 321 321 320 321 323 324 323 326 330 328 332 332 332 334 334 333 332 331 332 337 335 334 327 330 329 337 338 338 339 343 344 342
315 316 318 319 317 315 321 320 323 326 326 324 325 323 323 322 322 322 321 322 322 326 330 327 329 331 331 331 331 331 332 330 331 327 325 325 326 326 330 336 339 339 342 347 348
315 317 319 321 314 319 317 319 321 323 322 322 326 327 326 327 326 319 320 322 323 326 328 328 329 328 331 330 329 332 330 332 324 331 330 325 324 329 343 339 335 338 339 341 345
315 325 323 322 317 318 314 315 319 321 321 320 320 325 326 327 327 326 323 325 324 324 324 322 325 326 327 328 328 327 326 327 323 322 326 326 325 339 342 339 337 334 342 345 345
315 321 324 321 318 314 312 316 320 320 321 319 321 325 326 325 325 326 327 328 328 328 331 323 317 322 326 324 327 327 328 324 324 327 322 322 325 337 341 351 352 350 352 353 353
313 319 323 320 316 314 314 317 318 318 318 319 323 324 323 324 324 326 326 327 326 329 330 329 324 325 326 326 326 329 329 328 323 321 325 327 329 336 344 352 348 350 355 358 358
316 323 328 321 321 319 319 317 318 321 319 320 321 322 321 321 321 324 324 326 328 326 330 327 321 324 326 327 327 330 329 328 329 330 330 333 335 338 342 349 349 349 353 353 353
322 322 322 322 323 322 319 319 319 319 322 322 320 322 322 323 320 320 325 326 329 329 328 321 325 325 323 324 327 329 330 329 329 331 334 332 335 337 340 344 347 345 346 350 347
322 320 320 320 323 321 318 320 321 320 320 322 323 321 321 322 322 333 329 328 329 326 327 320 325 327 327 331 331 333 333 334 336 334 335 332 337 336 339 339 338 340 340 342 342
316 319 321 320 320 321 321 323 324 324 325 327 329 326 327 329 329 329 328 328 327 327 325 325 325 327 330 332 330 331 332 335 335 335 334 335 335 339 338 338 337 336 338 338 340
Wind_Speed
6 7 8 8 8 9 9 9 9 9 9 9 10 10 11 9 8 8 6 4 1 2 3 4 9 9 6 4 9 3 4 3 4 2 4 12 8 16 16 25 18 17 25 35 37
8 8 8 9 9 9 9 9 9 9 9 9 10 11 12 11 8 6 7 2 3 1 3 3 8 11 6 7 4 4 3 5 7 4 7 11 19 16 11 19 4 14 24 37 39
9 9 9 9 9 9 9 9 9 9 9 10 10 11 12 13 7 1 6 3 7 7 4 3 2 4 7 1 2 1 5 7 20 16 18 15 14 16 18 3 26 32 39 39 34
9 9 10 10 10 10 10 9 10 9 9 9 10 11 12 8 1 3 7 9 13 10 5 8 6 4 4 2 6 3 18 18 12 4 8 10 20 8 12 11 25 31 42 42 37
10 10 10 11 10 10 10 10 10 10 9 9 10 10 12 7 2 6 10 14 15 10 7 6 11 5 5 3 5 4 11 16 15 14 13 16 13 11 15 27 25 31 37 39 38
11 11 11 11 11 11 11 10 10 10 9 9 9 9 8 4 4 9 11 14 11 8 6 10 5 1 5 4 5 7 17 26 24 19 9 8 7 14 19 31 33 39 39 39 38
11 11 11 12 11 11 11 10 10 10 9 8 8 9 11 10 5 5 7 4 7 8 7 3 8 9 4 3 16 16 6 13 19 16 7 10 4 11 33 38 37 38 41 41 41
12 12 12 12 12 12 11 11 10 10 9 7 7 10 8 0 11 11 7 11 10 8 6 7 14 14 9 15 8 6 5 4 1 14 7 11 6 12 35 37 35 37 38 40 42
13 13 13 13 13 12 11 11 10 9 8 7 6 6 10 6 15 7 9 6 7 9 14 15 16 19 10 3 4 4 3 3 9 18 5 6 4 21 37 36 33 36 38 39 42
15 14 14 13 13 11 10 10 9 8 8 7 9 6 13 11 14 13 11 11 10 11 15 19 13 3 3 3 4 3 5 5 5 6 6 9 11 22 33 32 34 35 37 38 42
15 15 14 13 13 12 9 6 7 1 6 10 7 12 14 7 6 14 16 16 14 12 4 11 1 7 13 13 11 6 5 9 19 6 6 6 4 21 32 27 28 31 34 38 44
16 15 14 12 12 11 8 3 9 9 9 16 19 26 28 25 12 20 16 17 12 6 5 5 7 14 14 17 10 7 3 7 6 6 3 5 8 6 20 28 34 36 35 39 42
17 16 14 11 9 7 3 10 6 11 5 16 22 23 26 10 18 21 18 23 6 4 7 5 13 13 11 15 6 6 3 4 4 3 1 1 6 7 9 24 31 33 40 41 43
17 16 15 9 6 4 6 7 7 9 4 7 7 11 17 13 7 18 20 17 5 9 8 8 14 6 7 7 9 4 4 1 4 5 2 4 6 5 4 9 10 25 38 39 42
18 17 14 10 6 3 5 1 2 3 3 4 5 4 17 13 1 16 22 20 9 8 3 10 11 9 11 6 2 9 4 3 2 4 5 2 3 7 4 5 16 18 22 37 45
17 17 14 13 10 6 6 3 3 5 5 4 9 7 7 11 10 2 11 18 22 6 3 9 22 4 5 10 4 6 5 8 5 4 4 9 5 10 5 9 8 21 20 35 40
16 18 15 14 5 3 3 3 5 3 6 4 5 6 7 7 5 5 5 3 7 4 4 8 13 7 6 8 7 2 6 4 5 4 6 6 2 10 11 12 13 8 20 35 43
17 16 16 12 9 8 2 4 3 4 6 6 5 3 8 8 8 8 5 5 5 4 4 4 9 5 4 6 8 7 8 6 7 4 7 4 5 7 9 24 7 5 16 17 32
17 14 15 6 12 11 4 2 7 6 2 8 5 4 3 3 1 5 9 8 9 12 11 7 8 8 4 9 8 9 4 9 4 2 2 4 8 11 11 9 2 12 18 21 29
17 13 10 6 10 15 4 6 5 3 7 4 4 3 3 2 2 11 7 9 8 12 9 9 6 6 16 1 4 6 3 2 2 3 5 5 6 5 19 17 6 9 16 25 27
11 6 0 13 13 8 3 7 5 13 15 6 7 5 1 1 2 1 6 5 4 11 18 6 6 13 4 3 8 5 4 3 5 5 6 2 4 4 7 11 7 9 8 8 10
4 1 12 15 4 3 3 5 4 7 19 6 5 4 3 1 1 2 1 5 11 6 4 5 7 4 10 8 4 4 0 3 5 7 4 4 4 4 6 10 18 25 24 31 31
13 5 21 20 3 3 6 6 7 7 9 5 4 4 4 3 3 2 5 8 13 4 2 2 3 3 10 7 7 5 5 4 3 3 3 4 5 2 2 17 22 23 29 30 27
4 3 3 22 10 3 2 7 6 12 16 14 7 3 5 5 3 3 6 3 17 9 4 5 4 7 6 7 3 5 7 4 4 1 3 5 4 5 3 9 12 23 21 20 19
2 2 5 3 5 4 4 7 8 7 5 12 6 6 5 2 6 5 4 8 9 9 11 4 2 3 7 9 4 4 6 7 3 3 3 3 6 4 0 1 5 12 11 11 9
4 6 8 9 11 5 2 2 9 18 5 8 2 8 8 7 6 2 2 3 4 6 4 5 3 5 5 5 6 3 4 5 3 3 4 7 5 3 3 6 9 8 9 2 3
5 4 3 6 5 3 2 7 11 10 7 1 2 5 8 6 8 6 5 4 5 3 2 2 3 3 4 3 4 4 3 1 5 7 4 1 2 3 3 6 9 12 11 12 16
Wind_Direction
339 333 332 328 324 325 328 330 330 335 337 337 337 335 331 330 314 280 243 186 176 312 18 69 9 11 335 37 50 54 54 338 280 202 182 140 110 137 149 144 160 184 168 170 171
336 332 327 322 323 324 326 325 328 329 333 336 336 336 336 338 325 289 196 184 128 169 121 8 11 77 75 31 47 57 51 242 233 228 188 165 144 141 122 159 151 140 151 158 168
333 327 323 320 322 322 321 322 322 325 330 333 335 336 338 337 324 56 193 145 149 164 135 318 308 131 113 64 106 167 231 266 285 253 176 160 156 143 122 138 153 149 156 159 165
329 323 321 320 320 316 315 317 316 322 324 329 333 335 339 339 141 34 134 142 153 153 147 89 133 70 72 36 98 270 245 240 283 259 151 152 164 143 160 184 163 163 161 166 165
327 323 322 319 316 313 311 313 313 315 319 324 329 337 343 331 321 137 133 150 157 168 170 116 26 91 98 133 285 178 289 264 266 262 132 122 120 147 164 160 158 163 165 174 180
328 326 322 318 316 312 310 307 306 307 312 317 321 329 330 302 92 131 127 150 167 194 205 244 299 219 131 179 185 225 243 274 292 254 197 153 121 121 159 163 158 164 173 180 185
329 325 321 318 315 311 308 304 299 300 303 305 309 317 305 258 189 211 221 184 236 253 269 295 284 243 158 220 252 254 264 275 277 219 214 135 118 159 163 166 164 172 180 185 191
324 322 320 318 316 311 308 300 297 292 291 293 301 309 270 166 216 228 226 223 207 214 277 291 270 263 245 278 278 240 163 246 156 188 216 166 223 179 167 165 173 179 185 191 197
324 320 318 316 315 313 309 298 292 284 279 279 286 280 271 222 211 213 223 255 228 244 257 267 256 237 271 346 344 349 319 210 294 196 168 186 216 176 176 173 177 183 188 197 200
328 322 316 314 314 317 312 302 289 277 267 268 253 293 243 230 219 221 233 244 263 278 279 245 248 231 34 81 264 278 310 294 251 201 178 197 256 170 184 180 184 190 192 200 205
330 323 317 313 313 319 321 330 352 98 298 247 275 235 266 330 303 220 207 220 249 268 275 310 84 253 247 213 242 223 229 259 271 226 192 222 246 179 190 190 190 194 198 202 209
332 325 318 311 308 317 326 346 8 321 300 283 270 269 265 272 289 231 199 197 218 235 281 337 253 244 243 251 237 249 266 281 320 170 134 282 279 241 188 197 196 195 201 205 209
333 328 320 309 302 306 359 28 7 332 293 285 246 246 250 245 245 247 196 204 195 244 257 211 258 316 263 251 242 262 224 310 265 322 256 114 327 336 182 201 205 201 204 206 208
329 328 323 314 298 278 38 5 13 347 36 273 195 236 228 240 277 214 213 207 210 229 261 253 266 266 328 303 234 262 227 172 24 55 243 85 291 287 289 276 234 191 202 206 208
324 321 322 313 275 239 327 288 299 337 16 231 177 174 186 185 165 215 215 209 196 233 115 257 305 326 320 265 338 227 31 40 319 25 11 31 59 269 260 257 255 242 213 205 207
320 312 311 302 276 260 276 262 338 46 267 229 155 162 123 209 234 106 195 222 225 215 233 251 283 222 245 293 265 287 30 33 41 70 0 275 126 289 237 220 255 258 213 209 206
315 303 295 286 285 210 271 295 49 149 316 227 175 146 171 189 256 184 234 227 183 153 281 303 284 291 294 300 326 120 61 352 348 351 229 307 17 237 258 253 228 253 266 204 204
314 297 285 274 257 221 225 59 171 249 248 290 159 94 170 168 231 214 194 227 234 166 159 197 316 173 251 193 238 255 158 164 212 218 266 317 262 268 259 252 250 242 191 197 200
318 300 283 277 218 194 168 108 210 218 308 333 37 118 311 297 161 145 208 224 216 181 189 171 254 275 255 259 142 271 161 197 120 120 45 264 289 300 346 329 288 192 158 163 185
326 312 287 199 184 171 88 235 233 261 357 25 345 115 147 295 271 175 174 230 240 200 176 227 257 235 268 27 249 167 188 82 19 210 269 287 323 266 332 324 279 222 175 160 160
333 326 179 161 164 157 175 236 286 298 338 357 310 267 102 65 29 352 228 319 194 302 183 164 156 267 1 198 242 316 344 62 125 144 184 235 257 262 325 340 352 328 263 153 95
4 351 170 163 110 170 196 221 304 286 302 278 266 226 219 134 313 302 53 230 355 315 54 200 157 186 226 261 239 135 297 137 118 280 220 175 264 321 338 32 29 45 50 67 80
336 284 183 186 166 256 289 276 255 264 266 262 312 355 30 68 356 268 335 300 18 51 126 308 12 29 345 354 5 41 336 118 148 62 206 130 250 157 66 59 57 59 70 78 76
326 354 240 209 226 171 322 279 264 277 253 245 236 191 30 6 123 291 321 316 347 356 279 102 125 148 186 222 199 306 321 320 134 108 176 206 190 282 64 103 87 84 84 78 72
342 289 9 294 313 311 231 258 287 292 250 327 224 178 159 251 328 337 338 333 15 45 359 80 248 208 210 224 235 213 287 318 347 256 141 231 186 247 320 54 70 107 105 127 140
30 0 348 303 290 294 347 336 251 271 211 286 221 223 174 175 176 138 76 58 277 348 32 9 306 5 317 346 27 349 348 97 85 123 127 149 181 241 159 84 54 31 37 325 220
7 315 313 289 321 10 322 321 299 293 288 120 50 98 70 152 116 74 42 316 249 306 338 128 100 47 263 342 32 17 270 72 73 7 310 251 43 164 52 55 24 11 352 314 294